Simultaneous Nadir Overpasses (SNOs) Predictions

Prediction of SNOs between FY3D and METOP-C Satellite Orbit:

Table of predicted SNOs for the next 14.0 days since TLE Epoch: 9/13/2022
Index Date (FY3D) Time (FY3D) Lat,Lon (FY3D) SZA (FY3D ) Date (METOP-C) Time (METOP-C) Lat,Lon (METOP-C) SZA (METOP-C ) Distance(km) Time Diff (sec)
1 09/26/2022 19:38:28 75.00,-121.44 76.44 09/26/2022 19:39:33 74.92,-118.09 76.31 97.13 65
2 09/26/2022 20:29:10 -74.82, 46.37 103.74 09/26/2022 20:30:18 -74.76, 48.81 103.84 71.39 68
3 09/26/2022 21:19:51 74.60,-145.71 76.05 09/26/2022 21:21:02 74.55,-144.42 75.98 38.36 71
4 09/26/2022 22:10:34 -74.47, 21.96 104.08 09/26/2022 22:11:47 -74.40, 22.51 104.16 18.37 73
5 09/26/2022 23:01:17 74.35,-170.40 75.81 09/26/2022 23:02:28 74.33,-170.33 75.79 2.62 71
6 09/26/2022 23:52:02 -74.31, -3.00 104.22 09/26/2022 23:53:10 -74.33, -3.02 104.21 1.48 68
7 09/27/2022 00:42:48 74.33, 164.26 75.82 09/27/2022 00:43:50 74.31, 164.26 75.79 2.88 62
8 09/27/2022 01:33:33 -74.30, -28.35 104.20 09/27/2022 01:34:32 -74.30, -28.42 104.20 2.22 59
9 09/27/2022 02:24:19 74.32, 138.91 75.83 09/27/2022 02:25:11 74.33, 138.99 75.84 2.66 52



Historial Predications of SNOs between FY3D and METOP-C
